Flag for Chile Weather past 2 weeks in Antofagasta, Chile

Now
59 °F

Partly sunny.


Feels Like: 58 °F
Forecast: 56 / 70 °F
Wind: 7 mph from Southwest

Location: Antofagasta Airport

Current Time: Oct 2, 2014 at 12:01:15 PM

Latest Report: Oct 2, 2014 at 11:00 AM


Visibility: N/A

Pressure: 29.95 "Hg

Humidity: 72%

Dew point: 50 °F

Location of AntofagastaLocation

Historic Weather in Antofagasta — Graph

°F

Antofagasta temperature yesterday

Maximum temperature yesterday: 63 °F (at 4:00 PM)
Minimum temperature yesterday: 57 °F (at 12:00 AM)
Average temperature yesterday: 59 °F

Past Weeks' High & Low Weather Summary

 TemperatureHumidityPressure
High63 °F (Sep 18, 2:00 PM)88% (Sep 18, 10:00 PM)30.15 "Hg (Sep 18, 10:00 PM)
Low54 °F (Sep 26, 7:00 AM)56% (Sep 22, 12:00 PM)29.86 "Hg (Sep 30, 5:00 PM)
Average58 °F73%30.01 "Hg
* Reported Sep 17 11:00 AM — Oct 2 11:00 AM, Antofagasta, Weather by CustomWeather, © 2014

Note: Actual official high and low records may vary slightly from our data, if they occured in-between our weather recording intervals... More about our weather records

Advertising

Antofagasta weather history for previous 24 hours

 ConditionsComfort  
Time TempWeatherWind HumidityBarometerVisibility
11:00 AM
Oct 2
59 °FPartly sunny.7 mph72%29.95 "HgN/A
10:00 AM57 °FPartly sunny.8 mph77%29.95 "HgN/A
9:00 AM57 °FPartly sunny.9 mph77%29.95 "HgN/A
8:00 AM57 °FOvercast.8 mph77%29.95 "HgN/A
7:00 AM57 °FOvercast.9 mph82%29.92 "HgN/A
6:00 AM57 °FOvercast.9 mph82%29.92 "HgN/A
5:00 AM57 °FOvercast.8 mph77%29.92 "HgN/A
4:00 AM57 °FOvercast.7 mph77%29.92 "HgN/A
3:00 AM57 °FOvercast.5 mph77%29.95 "HgN/A
2:00 AM57 °FOvercast.6 mph77%29.95 "HgN/A
1:00 AM57 °FMostly cloudy.6 mph77%29.98 "HgN/A
12:00 AM57 °FMostly cloudy.7 mph77%30.01 "HgN/A
11:00 PM
Oct 1
59 °FMostly cloudy.3 mph72%30.01 "HgN/A
10:00 PM57 °FPassing clouds.2 mph77%30.01 "HgN/A
9:00 PM57 °FOvercast.10 mph77%29.98 "HgN/A
8:00 PM57 °FOvercast.10 mph82%29.95 "HgN/A
7:00 PM59 °FPassing clouds.13 mph77%29.92 "HgN/A
6:00 PM59 °FPartly sunny.13 mph72%29.92 "HgN/A
5:00 PM61 °FScattered clouds.13 mph68%29.92 "HgN/A
4:00 PM63 °FScattered clouds.12 mph64%29.92 "HgN/A
3:00 PM61 °FScattered clouds.10 mph68%29.95 "HgN/A
2:00 PM61 °FScattered clouds.10 mph68%29.95 "HgN/A
1:00 PM61 °FScattered clouds.12 mph68%29.98 "HgN/A
12:00 PM61 °FScattered clouds.10 mph68%29.98 "HgN/A
Weather by CustomWeather, © 2014

See weather overviewHow to use our weather pages